Change the Weather History Date:

Saturday, February 9, 2013

  Actual Average Record
Temperature  
Mean Temperature 38 °F 32 °F  
Max Temperature 47 °F 41 °F 72 °F (1943)
Min Temperature 28 °F 22 °F -20 °F (1899)
Degree Days  
Heating Degree Days 27 33  
Month to date heating degree days 264 309  
Since 1 July heating degree days 3091 3473  
Cooling Degree Days 0 0  
Month to date cooling degree days 0 0  
Year to date cooling degree days 0 0  
Moisture  
Dew Point 29 °F    
Average Humidity 67    
Maximum Humidity 85    
Minimum Humidity 49    
Precipitation  
Precipitation T in 0.05 in 0.81 in (1894)
Month to date precipitation 0.34 0.43  
Year to date precipitation 1.37 1.50  
Snow  
Snow 0.00 in 0.20 in 2.50 in (2001)
Month to date snowfall 0.0 1.9  
Since 1 July snowfall 4.7 12.7  
Snow Depth 0.00 in    
Sea Level Pressure  
Sea Level Pressure 30.03 in    
Wind  
Wind Speed 15 mph (SE)    
Max Wind Speed 23 mph    
Max Gust Speed 29 mph    
Visibility 8 miles    
Events Rain    
T = Trace of Precipitation, MM = Missing Value Source: NWS Daily Summary

Daily Weather History Graph

Daily Weather History Graph

Search for Another Location

Airport or City:

Trip Planner

Search our weather history database for the weather conditions in past years. The results will help you decide how hot, cold, wet, or windy it might be!

Date:

Astronomy

Feb. 09, 2013 Rise Set
Actual Time 7:17 AM CST 5:49 PM CST
Civil Twilight 6:49 AM CST 6:17 PM CST
Nautical Twilight 6:18 AM CST 6:48 PM CST
Astronomical Twilight 5:46 AM CST 7:19 PM CST
Moon 6:29 AM CST (2/9) 5:32 PM CST (2/9)
Length of Visible Light 11h 27m
Length of Day
10h 31m
Waning Crescent, 0% of the Moon is Illuminated
Feb 9
Waning Crescent
Feb 10
New
Feb 17
First Quarter
Feb 25
Full
Mar 4
Last Quarter

Hourly Weather History & Observations

Time (CST) Temp. Windchill Dew Point Humidity Pressure Visibility Wind Dir Wind Speed Gust Speed Precip Events Conditions
12:53 AM 28.9 °F 18.2 °F 25.0 °F 85% 30.24 in 6.0 mi SE 13.8 mph - N/A   Clear
1:53 AM 28.0 °F 17.0 °F 24.1 °F 85% 30.24 in 6.0 mi SE 13.8 mph - N/A   Clear
2:53 AM 28.0 °F 17.0 °F 25.0 °F 88% 30.22 in 7.0 mi SE 13.8 mph - N/A   Scattered Clouds
3:08 AM 28.4 °F 17.5 °F 24.8 °F 86% 30.19 in 7.0 mi SE 13.8 mph - N/A   Mostly Cloudy
3:53 AM 28.0 °F 17.5 °F 25.0 °F 88% 30.20 in 7.0 mi SE 12.7 mph - N/A   Mostly Cloudy
4:53 AM 28.9 °F 19.8 °F 25.0 °F 85% 30.19 in 8.0 mi SE 10.4 mph - N/A   Overcast
5:27 AM 28.4 °F 18.5 °F 24.8 °F 86% 30.16 in 7.0 mi ESE 11.5 mph - N/A   Mostly Cloudy
5:53 AM 28.9 °F 19.2 °F 25.0 °F 85% 30.17 in 7.0 mi ESE 11.5 mph - N/A   Mostly Cloudy
6:53 AM 30.0 °F 19.5 °F 26.1 °F 85% 30.17 in 7.0 mi SE 13.8 mph - N/A   Overcast
7:53 AM 30.0 °F 20.0 °F 26.1 °F 85% 30.17 in 6.0 mi SE 12.7 mph - N/A   Overcast
8:53 AM 32.0 °F 21.2 °F 27.0 °F 82% 30.15 in 8.0 mi SSE 16.1 mph - N/A   Overcast
9:53 AM 33.1 °F 22.2 °F 28.0 °F 82% 30.15 in 8.0 mi SSE 17.3 mph - N/A   Mostly Cloudy
10:53 AM 36.0 °F 28.0 °F 28.9 °F 76% 30.14 in 8.0 mi SE 11.5 mph - N/A   Overcast
11:53 AM 37.9 °F 30.5 °F 28.0 °F 68% 30.10 in 10.0 mi SE 11.5 mph - N/A   Overcast
12:53 PM 43.0 °F 36.4 °F 30.0 °F 60% 30.05 in 10.0 mi SSE 12.7 mph 20.7 mph N/A   Scattered Clouds
1:53 PM 45.0 °F 39.3 °F 30.0 °F 56% 30.00 in 10.0 mi SE 11.5 mph - N/A   Scattered Clouds
2:53 PM 46.9 °F - 30.9 °F 54% 29.96 in 10.0 mi SE 17.3 mph - N/A   Scattered Clouds
3:53 PM 46.0 °F 39.6 °F 30.9 °F 56% 29.96 in 10.0 mi SSE 15.0 mph - N/A   Mostly Cloudy
4:53 PM 46.0 °F 38.5 °F 28.9 °F 51% 29.91 in 10.0 mi SE 19.6 mph - N/A   Mostly Cloudy
5:53 PM 45.0 °F 37.1 °F 28.9 °F 53% 29.90 in 10.0 mi SSE 19.6 mph - N/A   Mostly Cloudy
6:53 PM 43.0 °F 35.1 °F 30.9 °F 62% 29.87 in 10.0 mi SSE 17.3 mph 25.3 mph 0.00 in Rain Light Rain
7:53 PM 41.0 °F 32.5 °F 32.0 °F 70% 29.86 in 10.0 mi SSE 17.3 mph - 0.00 in   Overcast
8:53 PM 39.0 °F 30.6 °F 34.0 °F 82% 29.84 in 10.0 mi SE 15.0 mph 23.0 mph 0.00 in   Overcast
9:53 PM 39.9 °F 31.4 °F 34.0 °F 79% 29.83 in 10.0 mi SSE 16.1 mph 23.0 mph N/A   Overcast
10:53 PM 39.9 °F 31.1 °F 34.0 °F 79% 29.78 in 10.0 mi SE 17.3 mph - N/A   Overcast
11:33 PM 39.2 °F 29.0 °F 35.6 °F 87% 29.75 in 10.0 mi SSE 21.9 mph 28.8 mph N/A   Overcast
11:53 PM 39.9 °F 31.1 °F 35.1 °F 83% 29.76 in 8.0 mi SSE 17.3 mph 26.5 mph N/A   Overcast